Find Starlink 4415

NORAD ID: 53465 Int'l Des: 2022-099 Owner: SPXS Country: US Constellation: starlink operational
LEOCIRCULARRETROGRADESSO

Live Position

Loading 3D Globe...

About Starlink 4415

Description loading...

Upcoming Passes

Passes for default location (London). Set your location on the main map for personalized predictions.

Altitude History

Loading altitude history...

Two-Line Element Set

1 53465U 22099A 26130.09635735 -.00002282 00000-0 -15405-3 0 9999
2 53465 97.5115 251.6179 0001056 83.7837 276.3510 15.05654518205272
Epoch: May 10, 2026 • Age: 9 hours

Current Status

Altitude 552.9 km
Velocity 7.59 km/s
Sub-Earth Point 28.36°N, 43.4°E
Launch Date Aug 12, 2022
Age 3.7 years
Type internet

Technical Details

Classification Payload
Mass 300.00 kg
Dry Mass 275.00 kg
Total Mass 300.00 kg
Length 0.20 m
Diameter 2.80 m
Span 9.00 m
Shape Box + pan
Manufacturer SPXS
Bus Type Starlink
Phase Status In Orbit
Owner/State SPXS/US

Most Searched